Time,TemperatureF,DewpointF,PressureIn,WindDirection,WindDirectionDegrees,WindSpeedMPH,WindSpeedGustMPH,Humidity,HourlyPrecipIn,Conditions,Clouds,dailyrainin,SoftwareType,DateUTC
2013-05-31 00:02:00,60.0,59.0,30.08,NW,325,0.0,0.0,95,0.00,,,0.00,,2013-05-31 04:02:00,
2013-05-31 00:12:00,60.0,59.0,30.08,NW,325,0.0,0.0,95,0.00,,,0.00,,2013-05-31 04:12:00,
2013-05-31 00:22:00,60.0,59.0,30.08,NW,325,0.0,4.0,95,0.00,,,0.00,,2013-05-31 04:22:00,
2013-05-31 00:33:00,59.0,58.0,30.07,NW,325,0.0,0.0,95,0.00,,,0.00,,2013-05-31 04:33:00,
2013-05-31 00:42:00,59.0,58.0,30.07,NW,325,0.0,0.0,95,0.00,,,0.00,,2013-05-31 04:42:00,
2013-05-31 00:53:00,59.0,58.0,30.07,NW,325,0.0,0.0,95,0.00,,,0.00,,2013-05-31 04:53:00,
2013-05-31 01:02:00,59.0,58.0,30.07,NW,325,0.0,1.0,95,0.00,,,0.00,,2013-05-31 05:02:00,
2013-05-31 01:12:00,59.0,58.0,30.07,NW,325,0.0,1.0,95,0.00,,,0.00,,2013-05-31 05:12:00,
2013-05-31 01:22:00,59.0,58.0,30.07,NW,325,0.0,0.0,95,0.00,,,0.00,,2013-05-31 05:22:00,
2013-05-31 01:32:00,58.0,57.0,30.07,NW,325,0.0,1.0,95,0.00,,,0.00,,2013-05-31 05:32:00,
2013-05-31 01:42:00,58.0,57.0,30.07,NW,325,0.0,1.0,95,0.00,,,0.00,,2013-05-31 05:42:00,
2013-05-31 01:52:00,58.0,57.0,30.07,NW,325,0.0,2.0,96,0.00,,,0.00,,2013-05-31 05:52:00,
2013-05-31 02:02:00,58.0,57.0,30.07,NW,325,0.0,1.0,96,0.00,,,0.00,,2013-05-31 06:02:00,
2013-05-31 02:12:00,58.0,57.0,30.07,NW,325,0.0,1.0,96,0.00,,,0.00,,2013-05-31 06:12:00,
2013-05-31 02:22:00,57.0,56.0,30.07,NW,325,0.0,0.0,96,0.00,,,0.00,,2013-05-31 06:22:00,
2013-05-31 02:32:00,57.0,56.0,30.08,NW,325,0.0,0.0,96,0.00,,,0.00,,2013-05-31 06:32:00,
2013-05-31 02:42:00,57.0,56.0,30.07,NW,325,0.0,0.0,96,0.00,,,0.00,,2013-05-31 06:42:00,
2013-05-31 02:52:00,57.0,56.0,30.07,NW,325,0.0,0.0,96,0.00,,,0.00,,2013-05-31 06:52:00,
2013-05-31 03:02:00,57.0,56.0,30.07,NW,325,0.0,0.0,96,0.00,,,0.00,,2013-05-31 07:02:00,
2013-05-31 03:11:00,57.0,56.0,30.07,NW,325,0.0,0.0,96,0.00,,,0.00,,2013-05-31 07:11:00,
2013-05-31 03:21:00,57.0,56.0,30.07,NW,325,0.0,1.0,96,0.00,,,0.00,,2013-05-31 07:21:00,
2013-05-31 03:32:00,57.0,56.0,30.07,NW,325,0.0,0.0,96,0.00,,,0.00,,2013-05-31 07:32:00,
2013-05-31 03:41:00,57.0,56.0,30.07,NW,325,0.0,0.0,96,0.00,,,0.00,,2013-05-31 07:41:00,
2013-05-31 03:53:00,56.0,55.0,30.07,NW,325,0.0,0.0,96,0.00,,,0.00,,2013-05-31 07:53:00,
2013-05-31 04:02:00,56.0,55.0,30.07,NW,325,0.0,0.0,96,0.00,,,0.00,,2013-05-31 08:02:00,
2013-05-31 04:11:00,56.0,55.0,30.07,NW,325,0.0,0.0,96,0.00,,,0.00,,2013-05-31 08:11:00,
2013-05-31 04:22:00,56.0,55.0,30.08,NW,325,0.0,0.0,96,0.00,,,0.00,,2013-05-31 08:22:00,
2013-05-31 04:32:00,56.0,55.0,30.08,NW,325,0.0,0.0,97,0.00,,,0.00,,2013-05-31 08:32:00,
2013-05-31 04:42:00,56.0,55.0,30.08,NW,325,0.0,0.0,97,0.00,,,0.00,,2013-05-31 08:42:00,
2013-05-31 04:52:00,56.0,55.0,30.08,NW,325,0.0,0.0,96,0.00,,,0.00,,2013-05-31 08:52:00,
2013-05-31 05:01:00,56.0,55.0,30.08,NW,325,0.0,0.0,97,0.00,,,0.00,,2013-05-31 09:01:00,
2013-05-31 05:11:00,56.0,55.0,30.08,NW,325,0.0,0.0,97,0.00,,,0.00,,2013-05-31 09:11:00,
2013-05-31 05:21:00,55.0,54.0,30.08,NW,325,0.0,0.0,96,0.00,,,0.00,,2013-05-31 09:21:00,
2013-05-31 05:32:00,55.0,54.0,30.08,NW,325,0.0,0.0,96,0.00,,,0.00,,2013-05-31 09:32:00,
2013-05-31 05:43:00,55.0,54.0,30.08,NW,325,0.0,0.0,96,0.00,,,0.00,,2013-05-31 09:43:00,
2013-05-31 05:53:00,55.0,54.0,30.08,NW,325,0.0,0.0,97,0.00,,,0.00,,2013-05-31 09:53:00,
2013-05-31 06:02:00,55.0,54.0,30.09,NW,325,0.0,0.0,97,0.00,,,0.00,,2013-05-31 10:02:00,
2013-05-31 06:12:00,55.0,54.0,30.09,NW,325,0.0,0.0,97,0.00,,,0.00,,2013-05-31 10:12:00,
2013-05-31 06:22:00,55.0,54.0,30.09,NW,325,0.0,0.0,97,0.00,,,0.00,,2013-05-31 10:22:00,
2013-05-31 06:33:00,56.0,55.0,30.09,NW,325,0.0,0.0,97,0.00,,,0.00,,2013-05-31 10:33:00,
2013-05-31 06:42:00,56.0,55.0,30.09,NW,325,0.0,0.0,97,0.00,,,0.00,,2013-05-31 10:42:00,
2013-05-31 06:52:00,56.0,55.0,30.09,NW,325,0.0,0.0,97,0.00,,,0.00,,2013-05-31 10:52:00,
2013-05-31 07:02:00,56.0,55.0,30.09,NW,325,0.0,0.0,97,0.00,,,0.00,,2013-05-31 11:02:00,
2013-05-31 07:12:00,56.0,55.0,30.09,NW,325,0.0,0.0,97,0.00,,,0.00,,2013-05-31 11:12:00,
2013-05-31 07:22:00,57.0,56.0,30.09,NW,325,0.0,0.0,97,0.00,,,0.00,,2013-05-31 11:22:00,
2013-05-31 07:32:00,58.0,57.0,30.09,NW,325,0.0,0.0,98,0.00,,,0.00,,2013-05-31 11:32:00,
2013-05-31 07:42:00,58.0,57.0,30.09,NW,325,0.0,0.0,98,0.00,,,0.00,,2013-05-31 11:42:00,
2013-05-31 07:52:00,59.0,58.0,30.09,NW,325,0.0,0.0,98,0.00,,,0.00,,2013-05-31 11:52:00,
2013-05-31 08:01:00,61.0,60.0,30.09,NW,325,0.0,0.0,98,0.00,,,0.00,,2013-05-31 12:01:00,
2013-05-31 08:11:00,61.0,60.0,30.09,NW,325,0.0,0.0,98,0.00,,,0.00,,2013-05-31 12:11:00,
2013-05-31 08:22:00,62.0,61.0,30.09,NW,325,0.0,0.0,98,0.00,,,0.00,,2013-05-31 12:22:00,
2013-05-31 08:32:00,64.0,63.0,30.08,NW,325,0.0,1.0,98,0.00,,,0.00,,2013-05-31 12:32:00,
2013-05-31 08:42:00,64.0,63.0,30.08,NW,325,0.0,1.0,98,0.00,,,0.00,,2013-05-31 12:42:00,
2013-05-31 08:52:00,65.0,64.0,30.07,SW,222,2.0,4.0,98,0.00,,,0.00,,2013-05-31 12:52:00,
2013-05-31 09:01:00,68.0,67.0,30.06,SW,222,0.0,0.0,98,0.00,,,0.00,,2013-05-31 13:01:00,
2013-05-31 09:11:00,68.0,67.0,30.06,SW,222,0.0,0.0,98,0.00,,,0.00,,2013-05-31 13:11:00,
2013-05-31 09:21:00,70.0,68.0,30.06,West,264,0.0,2.0,93,0.00,,,0.00,,2013-05-31 13:21:00,
2013-05-31 09:32:00,74.0,69.0,30.06,South,171,3.0,7.0,84,0.00,,,0.00,,2013-05-31 13:32:00,
2013-05-31 09:42:00,74.0,69.0,30.06,South,171,3.0,7.0,84,0.00,,,0.00,,2013-05-31 13:42:00,
2013-05-31 09:52:00,78.0,69.0,30.06,SW,219,4.0,9.0,74,0.00,,,0.00,,2013-05-31 13:52:00,
2013-05-31 10:02:00,82.0,67.0,30.06,West,280,2.0,11.0,61,0.00,,,0.00,,2013-05-31 14:02:00,
2013-05-31 10:11:00,82.0,67.0,30.06,West,280,2.0,11.0,61,0.00,,,0.00,,2013-05-31 14:11:00,
2013-05-31 10:21:00,83.0,67.0,30.06,NNW,338,5.0,10.0,59,0.00,,,0.00,,2013-05-31 14:21:00,
2013-05-31 10:32:00,83.0,67.0,30.05,West,269,7.0,11.0,58,0.00,,,0.00,,2013-05-31 14:32:00,
2013-05-31 10:42:00,83.0,67.0,30.05,West,269,7.0,11.0,58,0.00,,,0.00,,2013-05-31 14:42:00,
2013-05-31 10:52:00,85.0,67.0,30.05,NW,306,6.0,12.0,55,0.00,,,0.00,,2013-05-31 14:52:00,
2013-05-31 11:01:00,85.0,67.0,30.04,WSW,247,4.0,9.0,55,0.00,,,0.00,,2013-05-31 15:01:00,
2013-05-31 11:11:00,85.0,67.0,30.04,WSW,247,4.0,9.0,55,0.00,,,0.00,,2013-05-31 15:11:00,
2013-05-31 11:21:00,84.0,66.0,30.04,WSW,253,1.0,6.0,55,0.00,,,0.00,,2013-05-31 15:21:00,
2013-05-31 11:33:00,83.0,65.0,30.03,West,275,5.0,9.0,55,0.00,,,0.00,,2013-05-31 15:33:00,
2013-05-31 11:43:00,83.0,65.0,30.03,West,275,5.0,9.0,55,0.00,,,0.00,,2013-05-31 15:43:00,
2013-05-31 11:53:00,85.0,66.0,30.03,South,169,6.0,9.0,54,0.00,,,0.00,,2013-05-31 15:53:00,
2013-05-31 12:03:00,86.0,66.0,30.03,SSW,212,2.0,10.0,51,0.00,,,0.00,,2013-05-31 16:03:00,
2013-05-31 12:12:00,88.0,65.0,30.02,WNW,302,8.0,11.0,47,0.00,,,0.00,,2013-05-31 16:12:00,
2013-05-31 12:22:00,88.0,65.0,30.02,WNW,302,8.0,11.0,47,0.00,,,0.00,,2013-05-31 16:22:00,
2013-05-31 12:33:00,90.0,66.0,30.02,WNW,286,7.0,11.0,45,0.00,,,0.00,,2013-05-31 16:33:00,
2013-05-31 12:42:00,90.0,66.0,30.02,WNW,286,7.0,11.0,45,0.00,,,0.00,,2013-05-31 16:42:00,
2013-05-31 12:53:00,89.0,65.0,30.01,NNW,327,4.0,13.0,46,0.00,,,0.00,,2013-05-31 16:53:00,
2013-05-31 13:02:00,92.0,67.0,30.01,WNW,298,5.0,9.0,44,0.00,,,0.00,,2013-05-31 17:02:00,
2013-05-31 13:12:00,92.0,67.0,30.01,WNW,298,5.0,9.0,44,0.00,,,0.00,,2013-05-31 17:12:00,
2013-05-31 13:22:00,93.0,66.0,30.01,West,280,6.0,9.0,41,0.00,,,0.00,,2013-05-31 17:22:00,
2013-05-31 13:32:00,93.0,65.0,30.00,WNW,291,7.0,11.0,40,0.00,,,0.00,,2013-05-31 17:32:00,
2013-05-31 13:42:00,93.0,65.0,30.00,WNW,291,7.0,11.0,40,0.00,,,0.00,,2013-05-31 17:42:00,
2013-05-31 13:52:00,92.0,66.0,29.99,West,262,7.0,10.0,43,0.00,,,0.00,,2013-05-31 17:52:00,
2013-05-31 14:02:00,92.0,66.0,29.99,WSW,250,2.0,12.0,42,0.00,,,0.00,,2013-05-31 18:02:00,
2013-05-31 14:12:00,92.0,66.0,29.99,WSW,250,2.0,12.0,42,0.00,,,0.00,,2013-05-31 18:12:00,
2013-05-31 14:22:00,93.0,66.0,29.98,WNW,283,2.0,10.0,41,0.00,,,0.00,,2013-05-31 18:22:00,
2013-05-31 14:32:00,93.0,66.0,29.98,SW,223,3.0,11.0,41,0.00,,,0.00,,2013-05-31 18:32:00,
2013-05-31 14:42:00,93.0,66.0,29.98,SW,223,3.0,11.0,41,0.00,,,0.00,,2013-05-31 18:42:00,
2013-05-31 14:52:00,92.0,66.0,29.98,South,179,2.0,10.0,43,0.00,,,0.00,,2013-05-31 18:52:00,
2013-05-31 15:02:00,92.0,67.0,29.97,SSW,199,4.0,11.0,44,0.00,,,0.00,,2013-05-31 19:02:00,
2013-05-31 15:11:00,92.0,67.0,29.97,SSW,199,4.0,11.0,44,0.00,,,0.00,,2013-05-31 19:11:00,
2013-05-31 15:22:00,92.0,68.0,29.97,NW,325,2.0,10.0,45,0.00,,,0.00,,2013-05-31 19:22:00,
2013-05-31 15:32:00,92.0,66.0,29.96,West,267,5.0,10.0,43,0.00,,,0.00,,2013-05-31 19:32:00,
2013-05-31 15:42:00,92.0,66.0,29.96,West,267,5.0,10.0,43,0.00,,,0.00,,2013-05-31 19:42:00,
2013-05-31 15:52:00,91.0,66.0,29.96,SW,226,7.0,14.0,44,0.00,,,0.00,,2013-05-31 19:52:00,
2013-05-31 16:02:00,92.0,66.0,29.96,WSW,238,4.0,12.0,43,0.00,,,0.00,,2013-05-31 20:02:00,
2013-05-31 16:11:00,92.0,66.0,29.96,WSW,238,4.0,12.0,43,0.00,,,0.00,,2013-05-31 20:11:00,
2013-05-31 16:22:00,92.0,66.0,29.95,SW,222,5.0,9.0,42,0.00,,,0.00,,2013-05-31 20:22:00,
2013-05-31 16:32:00,92.0,68.0,29.94,SSW,211,6.0,19.0,45,0.00,,,0.00,,2013-05-31 20:32:00,
2013-05-31 16:42:00,92.0,68.0,29.94,SSW,211,6.0,19.0,45,0.00,,,0.00,,2013-05-31 20:42:00,
2013-05-31 16:52:00,90.0,66.0,29.93,South,188,6.0,14.0,46,0.00,,,0.00,,2013-05-31 20:52:00,
2013-05-31 17:01:00,91.0,67.0,29.93,WSW,254,7.0,12.0,45,0.00,,,0.00,,2013-05-31 21:01:00,
2013-05-31 17:11:00,91.0,67.0,29.93,WSW,254,7.0,12.0,45,0.00,,,0.00,,2013-05-31 21:11:00,
2013-05-31 17:22:00,91.0,66.0,29.92,SSE,157,8.0,14.0,44,0.00,,,0.00,,2013-05-31 21:22:00,
2013-05-31 17:32:00,91.0,66.0,29.92,WNW,296,4.0,9.0,44,0.00,,,0.00,,2013-05-31 21:32:00,
2013-05-31 17:42:00,91.0,67.0,29.91,South,188,4.0,10.0,45,0.00,,,0.00,,2013-05-31 21:42:00,
2013-05-31 17:54:00,91.0,67.0,29.91,South,188,4.0,10.0,45,0.00,,,0.00,,2013-05-31 21:54:00,
2013-05-31 18:02:00,90.0,66.0,29.91,WSW,250,4.0,12.0,45,0.00,,,0.00,,2013-05-31 22:02:00,
2013-05-31 18:12:00,90.0,66.0,29.91,WSW,250,4.0,12.0,45,0.00,,,0.00,,2013-05-31 22:12:00,
2013-05-31 18:22:00,90.0,66.0,29.91,SW,227,3.0,9.0,45,0.00,,,0.00,,2013-05-31 22:22:00,
2013-05-31 18:33:00,89.0,65.0,29.90,South,176,4.0,11.0,46,0.00,,,0.00,,2013-05-31 22:33:00,
2013-05-31 18:42:00,88.0,65.0,29.91,SSE,167,4.0,11.0,46,0.00,,,0.00,,2013-05-31 22:42:00,
2013-05-31 18:53:00,88.0,65.0,29.91,SSE,167,4.0,11.0,46,0.00,,,0.00,,2013-05-31 22:53:00,
2013-05-31 19:02:00,88.0,64.0,29.91,South,178,5.0,8.0,45,0.00,,,0.00,,2013-05-31 23:02:00,
2013-05-31 19:12:00,88.0,64.0,29.91,South,178,5.0,8.0,45,0.00,,,0.00,,2013-05-31 23:12:00,
2013-05-31 19:21:00,87.0,62.0,29.91,SSW,206,4.0,10.0,44,0.00,,,0.00,,2013-05-31 23:21:00,
2013-05-31 19:32:00,87.0,61.0,29.91,SSW,209,3.0,10.0,42,0.00,,,0.00,,2013-05-31 23:32:00,
2013-05-31 19:42:00,86.0,65.0,29.91,WSW,248,2.0,8.0,50,0.00,,,0.00,,2013-05-31 23:42:00,
2013-05-31 19:52:00,86.0,65.0,29.91,WSW,248,2.0,8.0,50,0.00,,,0.00,,2013-05-31 23:52:00,
2013-05-31 20:01:00,83.0,66.0,29.92,NW,317,3.0,7.0,56,0.00,,,0.00,,2013-06-01 00:01:00,
2013-05-31 20:12:00,80.0,66.0,29.92,North,9,0.0,4.0,63,0.00,,,0.00,,2013-06-01 00:12:00,
2013-05-31 20:22:00,80.0,66.0,29.92,North,9,0.0,4.0,63,0.00,,,0.00,,2013-06-01 00:22:00,
2013-05-31 20:32:00,76.0,65.0,29.92,NNE,23,1.0,5.0,70,0.00,,,0.00,,2013-06-01 00:32:00,
2013-05-31 20:42:00,74.0,64.0,29.92,NNE,23,0.0,4.0,72,0.00,,,0.00,,2013-06-01 00:42:00,
2013-05-31 20:52:00,74.0,64.0,29.92,NNE,23,0.0,4.0,72,0.00,,,0.00,,2013-06-01 00:52:00,
2013-05-31 21:01:00,72.0,64.0,29.93,NNE,22,0.0,5.0,76,0.00,,,0.00,,2013-06-01 01:01:00,
2013-05-31 21:11:00,71.0,64.0,29.93,NW,304,0.0,5.0,78,0.00,,,0.00,,2013-06-01 01:11:00,
2013-05-31 21:22:00,71.0,64.0,29.93,NW,304,0.0,5.0,78,0.00,,,0.00,,2013-06-01 01:22:00,
2013-05-31 21:32:00,70.0,64.0,29.94,NW,304,0.0,4.0,80,0.00,,,0.00,,2013-06-01 01:32:00,
2013-05-31 21:42:00,68.0,63.0,29.94,NW,304,0.0,2.0,83,0.00,,,0.00,,2013-06-01 01:42:00,
2013-05-31 21:52:00,68.0,63.0,29.94,NW,304,0.0,2.0,83,0.00,,,0.00,,2013-06-01 01:52:00,
2013-05-31 22:01:00,68.0,63.0,29.95,NW,304,1.0,3.0,84,0.00,,,0.00,,2013-06-01 02:01:00,
2013-05-31 22:12:00,67.0,62.0,29.95,NW,304,0.0,2.0,85,0.00,,,0.00,,2013-06-01 02:12:00,
2013-05-31 22:21:00,67.0,62.0,29.95,NW,304,0.0,2.0,85,0.00,,,0.00,,2013-06-01 02:21:00,
2013-05-31 22:32:00,66.0,62.0,29.96,NW,304,0.0,1.0,86,0.00,,,0.00,,2013-06-01 02:32:00,
2013-05-31 22:42:00,65.0,61.0,29.96,NW,304,0.0,2.0,87,0.00,,,0.00,,2013-06-01 02:42:00,
2013-05-31 22:52:00,65.0,61.0,29.96,NW,304,0.0,2.0,87,0.00,,,0.00,,2013-06-01 02:52:00,
2013-05-31 23:02:00,65.0,61.0,29.96,NW,304,0.0,1.0,88,0.00,,,0.00,,2013-06-01 03:02:00,
2013-05-31 23:11:00,64.0,61.0,29.96,NW,304,0.0,1.0,89,0.00,,,0.00,,2013-06-01 03:11:00,
2013-05-31 23:21:00,64.0,61.0,29.96,NW,304,0.0,1.0,89,0.00,,,0.00,,2013-06-01 03:21:00,
2013-05-31 23:33:00,64.0,61.0,29.96,NW,304,0.0,1.0,89,0.00,,,0.00,,2013-06-01 03:33:00,
2013-05-31 23:43:00,63.0,60.0,29.95,NW,304,0.0,2.0,90,0.00,,,0.00,,2013-06-01 03:43:00,
2013-05-31 23:53:00,63.0,60.0,29.95,NW,304,0.0,2.0,90,0.00,,,0.00,,2013-06-01 03:53:00,